| time (UTC) | temp C | wind direction | speed KPH | gust KPH | rain 1hr cm | rain 24hr cm | rain mn cm | humidity % | barometer mb |
| 20260506222821 | 13 | 287 | 0.0 | 3.2 | 0.03 | 3.00 | 2.97 | 88 | 1014.7 |
| 20260506222621 | 13 | 287 | 0.0 | 3.2 | 0.03 | 3.00 | 2.97 | 87 | 1014.6 |
| 20260506222421 | 13 | 286 | 0.0 | 3.2 | 0.03 | 3.00 | 2.97 | 87 | 1014.6 |
| 20260506222221 | 13 | 284 | 0.0 | 3.2 | 0.03 | 3.00 | 2.97 | 87 | 1014.7 |
| 20260506222021 | 13 | 282 | 0.0 | 1.6 | 0.03 | 3.00 | 2.97 | 87 | 1014.9 |
| 20260506221821 | 13 | 287 | 0.0 | 1.6 | 0.03 | 3.00 | 2.97 | 86 | 1014.7 |
| 20260506221621 | 13 | 286 | 0.0 | 1.6 | 0.03 | 3.00 | 2.97 | 86 | 1014.5 |
| 20260506221421 | 13 | 272 | 0.0 | 3.2 | 0.03 | 3.00 | 2.97 | 86 | 1014.4 |
| 20260506221221 | 13 | 250 | 0.0 | 3.2 | 0.03 | 3.00 | 2.97 | 87 | 1014.3 |
| 20260506221042 | 13 | 255 | 0.0 | 3.2 | 0.03 | 3.00 | 2.97 | 87 | 1014.0 |
| 20260506220821 | 13 | 280 | 0.0 | 3.2 | 0.03 | 3.00 | 2.97 | 87 | 1014.5 |
| 20260506220621 | 13 | 280 | 0.0 | 3.2 | 0.03 | 3.00 | 2.97 | 87 | 1015.0 |
| 20260506220442 | 13 | 286 | 0.0 | 3.2 | 0.03 | 3.00 | 2.97 | 87 | 1014.8 |
| 20260506220221 | 13 | 274 | 0.0 | 3.2 | 0.03 | 3.00 | 2.97 | 87 | 1015.3 |
| 20260506220022 | 13 | 273 | 0.0 | 3.2 | 0.03 | 3.00 | 2.97 | 87 | 1015.6 |
| 20260506215821 | 13 | 266 | 0.0 | 3.2 | 0.03 | 3.00 | 2.97 | 87 | 1014.9 |
| 20260506215621 | 14 | 266 | 0.0 | 3.2 | 0.03 | 3.00 | 2.97 | 87 | 1014.8 |
| 20260506215421 | 14 | 270 | 0.0 | 3.2 | 0.03 | 3.00 | 2.97 | 87 | 1014.7 |
| 20260506215221 | 14 | 286 | 0.0 | 3.2 | 0.03 | 3.00 | 2.97 | 87 | 1014.3 |
| 20260506215042 | 14 | 287 | 0.0 | 3.2 | 0.03 | 3.00 | 2.97 | 88 | 1014.4 |
| 20260506214821 | 14 | 317 | 0.0 | 1.6 | 0.03 | 3.00 | 2.97 | 89 | 1014.2 |
| 20260506214621 | 14 | 322 | 0.0 | 1.6 | 0.03 | 3.00 | 2.97 | 89 | 1014.4 |
| 20260506214421 | 14 | 322 | 0.0 | 1.6 | 0.03 | 3.00 | 2.97 | 89 | 1014.5 |
| 20260506214221 | 14 | 327 | 0.0 | 1.6 | 0.03 | 3.00 | 2.97 | 89 | 1014.7 |
| 20260506214042 | 14 | 338 | 0.0 | 1.6 | 0.00 | 2.97 | 2.95 | 89 | 1015.0 |
| 20260506213821 | 14 | 338 | 0.0 | 1.6 | 0.00 | 2.97 | 2.95 | 89 | 1015.0 |
| 20260506213621 | 14 | 0 | 0.0 | 0.0 | 0.00 | 2.97 | 2.95 | 88 | 1014.8 |
| 20260506213442 | 14 | 0 | 0.0 | 0.0 | 0.00 | 2.97 | 2.95 | 88 | 1014.7 |
| 20260506213221 | 14 | 0 | 0.0 | 0.0 | 0.00 | 2.97 | 2.95 | 88 | 1014.5 |
| 20260506213021 | 14 | 0 | 0.0 | 0.0 | 0.00 | 2.97 | 2.95 | 88 | 1014.3 |
| 20260506212821 | 14 | 0 | 0.0 | 0.0 | 0.00 | 2.97 | 2.95 | 87 | 1014.1 |
| 20260506212642 | 14 | 0 | 0.0 | 0.0 | 0.00 | 2.97 | 2.95 | 86 | 1013.9 |
| 20260506212421 | 14 | 0 | 0.0 | 0.0 | 0.00 | 2.97 | 2.95 | 87 | 1013.7 |
| 20260506212221 | 14 | 0 | 0.0 | 0.0 | 0.03 | 2.97 | 2.95 | 87 | 1013.7 |
| 20260506212021 | 15 | 0 | 0.0 | 0.0 | 0.03 | 2.97 | 2.95 | 86 | 1013.6 |
| 20260506211821 | 14 | 0 | 0.0 | 0.0 | 0.03 | 2.97 | 2.95 | 86 | 1013.4 |
| 20260506211621 | 15 | 0 | 0.0 | 0.0 | 0.03 | 2.97 | 2.95 | 86 | 1013.4 |
| 20260506211443 | 15 | 0 | 0.0 | 0.0 | 0.03 | 2.97 | 2.95 | 86 | 1013.5 |
| 20260506211221 | 15 | 0 | 0.0 | 0.0 | 0.03 | 2.97 | 2.95 | 86 | 1013.6 |
| 20260506211021 | 15 | 0 | 0.0 | 0.0 | 0.03 | 2.97 | 2.95 | 85 | 1013.7 |
| 20260506210842 | 15 | 0 | 0.0 | 0.0 | 0.03 | 2.97 | 2.95 | 85 | 1013.9 |
| 20260506210621 | 15 | 0 | 0.0 | 0.0 | 0.03 | 2.97 | 2.95 | 84 | 1013.9 |
| 20260506210442 | 15 | 0 | 0.0 | 0.0 | 0.03 | 2.97 | 2.95 | 84 | 1014.0 |
| 20260506210221 | 15 | 0 | 0.0 | 0.0 | 0.03 | 2.97 | 2.95 | 84 | 1014.0 |
| 20260506210021 | 15 | 0 | 0.0 | 0.0 | 0.03 | 2.97 | 2.95 | 83 | 1014.0 |
| 20260506205821 | 15 | 0 | 0.0 | 0.0 | 0.03 | 2.97 | 2.95 | 83 | 1014.0 |
| 20260506205643 | 15 | 0 | 0.0 | 0.0 | 0.03 | 2.97 | 2.95 | 83 | 1013.8 |
| 20260506205421 | 15 | 23 | 0.0 | 1.6 | 0.03 | 2.97 | 2.95 | 82 | 1013.9 |
| 20260506205221 | 15 | 23 | 0.0 | 1.6 | 0.03 | 2.97 | 2.95 | 82 | 1014.0 |
| 20260506205021 | 15 | 337 | 0.0 | 3.2 | 0.03 | 2.97 | 2.95 | 82 | 1014.1 |
| 20260506204821 | 15 | 339 | 0.0 | 3.2 | 0.03 | 2.97 | 2.95 | 81 | 1014.2 |
| 20260506204621 | 15 | 348 | 0.0 | 3.2 | 0.03 | 2.97 | 2.95 | 81 | 1014.5 |
| 20260506204421 | 15 | 322 | 0.0 | 3.2 | 0.03 | 2.97 | 2.95 | 81 | 1014.6 |
| 20260506204221 | 15 | 297 | 0.0 | 3.2 | 0.03 | 2.97 | 2.95 | 82 | 1014.7 |
| 20260506204044 | 15 | 286 | 0.0 | 3.2 | 0.03 | 2.97 | 2.95 | 82 | 1014.8 |
| 20260506203822 | 15 | 284 | 0.0 | 3.2 | 0.03 | 2.97 | 2.95 | 81 | 1014.7 |
| 20260506203621 | 15 | 278 | 0.0 | 3.2 | 0.03 | 2.97 | 2.95 | 81 | 1014.5 |
| 20260506203421 | 15 | 278 | 0.0 | 3.2 | 0.03 | 2.97 | 2.95 | 80 | 1014.7 |
| 20260506203221 | 15 | 275 | 0.0 | 1.6 | 0.03 | 2.97 | 2.95 | 80 | 1014.7 |
| 20260506203021 | 15 | 276 | 0.0 | 3.2 | 0.03 | 2.97 | 2.95 | 80 | 1014.6 |
| 20260506202821 | 15 | 277 | 0.0 | 3.2 | 0.03 | 2.97 | 2.95 | 80 | 1014.7 |
| 20260506202622 | 15 | 279 | 0.0 | 3.2 | 0.03 | 2.97 | 2.95 | 80 | 1014.8 |
| 20260506202421 | 15 | 279 | 0.0 | 3.2 | 0.03 | 2.97 | 2.95 | 80 | 1014.9 |
| 20260506202242 | 15 | 276 | 1.6 | 4.8 | 0.00 | 2.95 | 2.92 | 80 | 1015.0 |
| 20260506202021 | 15 | 274 | 1.6 | 4.8 | 0.00 | 2.95 | 2.92 | 80 | 1015.0 |
| 20260506201821 | 15 | 272 | 1.6 | 4.8 | 0.00 | 2.95 | 2.92 | 80 | 1015.0 |
| 20260506201621 | 15 | 274 | 1.6 | 4.8 | 0.00 | 2.95 | 2.92 | 79 | 1014.9 |
| 20260506201442 | 15 | 274 | 1.6 | 4.8 | 0.03 | 2.95 | 2.92 | 79 | 1014.6 |
| 20260506201242 | 15 | 274 | 1.6 | 4.8 | 0.03 | 2.95 | 2.92 | 79 | 1014.6 |
| 20260506201042 | 15 | 277 | 1.6 | 4.8 | 0.03 | 2.95 | 2.92 | 79 | 1014.7 |
| 20260506200821 | 15 | 278 | 1.6 | 4.8 | 0.03 | 2.95 | 2.92 | 78 | 1014.6 |
| 20260506200621 | 15 | 286 | 1.6 | 4.8 | 0.03 | 2.95 | 2.92 | 79 | 1014.5 |
| 20260506200421 | 15 | 317 | 0.0 | 4.8 | 0.03 | 2.95 | 2.92 | 78 | 1014.2 |
| 20260506200221 | 15 | 355 | 0.0 | 4.8 | 0.03 | 2.95 | 2.92 | 78 | 1014.2 |
| 20260506200021 | 15 | 26 | 0.0 | 4.8 | 0.03 | 2.95 | 2.92 | 78 | 1014.1 |
| 20260506195821 | 15 | 25 | 0.0 | 4.8 | 0.03 | 2.95 | 2.92 | 78 | 1014.0 |
| 20260506195621 | 16 | 21 | 0.0 | 4.8 | 0.03 | 2.95 | 2.92 | 78 | 1013.9 |
| 20260506195422 | 16 | 20 | 0.0 | 4.8 | 0.03 | 2.95 | 2.92 | 78 | 1013.9 |
| 20260506195221 | 16 | 7 | 0.0 | 3.2 | 0.03 | 2.95 | 2.92 | 78 | 1014.0 |
| 20260506195042 | 16 | 355 | 0.0 | 3.2 | 0.03 | 2.95 | 2.92 | 77 | 1014.1 |
| 20260506194821 | 16 | 8 | 0.0 | 3.2 | 0.03 | 2.95 | 2.92 | 77 | 1014.3 |
| 20260506194621 | 16 | 3 | 0.0 | 3.2 | 0.03 | 2.95 | 2.92 | 77 | 1014.6 |
| 20260506194421 | 16 | 356 | 0.0 | 3.2 | 0.03 | 2.95 | 2.92 | 78 | 1014.6 |
| 20260506194221 | 16 | 315 | 0.0 | 3.2 | 0.03 | 2.95 | 2.92 | 77 | 1014.7 |
| 20260506194021 | 16 | 357 | 0.0 | 3.2 | 0.03 | 2.95 | 2.92 | 76 | 1014.7 |
| 20260506193821 | 16 | 349 | 0.0 | 3.2 | 0.03 | 2.95 | 2.92 | 76 | 1014.5 |
| 20260506193621 | 16 | 319 | 0.0 | 3.2 | 0.03 | 2.95 | 2.92 | 75 | 1014.3 |
| 20260506193443 | 16 | 298 | 0.0 | 3.2 | 0.03 | 2.95 | 2.92 | 75 | 1014.3 |
| 20260506193221 | 16 | 294 | 0.0 | 3.2 | 0.03 | 2.95 | 2.92 | 75 | 1014.4 |
| 20260506193042 | 16 | 265 | 0.0 | 1.6 | 0.03 | 2.95 | 2.92 | 74 | 1014.5 |
| 20260506192821 | 16 | 265 | 1.6 | 1.6 | 0.03 | 2.95 | 2.92 | 74 | 1014.6 |
| 20260506192621 | 16 | 265 | 1.6 | 1.6 | 0.03 | 2.95 | 2.92 | 74 | 1014.6 |
| 20260506192421 | 16 | 277 | 1.6 | 6.4 | 0.03 | 2.95 | 2.92 | 74 | 1014.7 |
| 20260506192242 | 16 | 280 | 1.6 | 6.4 | 0.05 | 2.95 | 2.92 | 74 | 1014.7 |
| 20260506192021 | 16 | 280 | 0.0 | 6.4 | 0.05 | 2.95 | 2.92 | 75 | 1014.7 |
| 20260506191822 | 16 | 280 | 0.0 | 6.4 | 0.05 | 2.95 | 2.92 | 75 | 1014.7 |
| 20260506191621 | 16 | 279 | 0.0 | 6.4 | 0.05 | 2.95 | 2.92 | 74 | 1014.7 |
| 20260506191421 | 16 | 280 | 0.0 | 4.8 | 0.03 | 2.92 | 2.90 | 75 | 1014.6 |
| 20260506191221 | 16 | 279 | 0.0 | 3.2 | 0.03 | 2.92 | 2.90 | 75 | 1014.4 |
| 20260506191021 | 16 | 279 | 0.0 | 3.2 | 0.03 | 2.92 | 2.90 | 75 | 1014.4 |
| 20260506190822 | 16 | 279 | 0.0 | 1.6 | 0.03 | 2.92 | 2.90 | 75 | 1014.6 |
| 20260506190621 | 16 | 284 | 0.0 | 1.6 | 0.03 | 2.92 | 2.90 | 74 | 1014.7 |
| 20260506190421 | 16 | 319 | 0.0 | 1.6 | 0.03 | 2.92 | 2.90 | 75 | 1014.7 |
| 20260506190221 | 16 | 332 | 0.0 | 1.6 | 0.03 | 2.92 | 2.90 | 75 | 1014.7 |
| 20260506190021 | 16 | 334 | 0.0 | 1.6 | 0.03 | 2.92 | 2.90 | 74 | 1014.7 |
| 20260506185821 | 16 | 354 | 0.0 | 1.6 | 0.03 | 2.92 | 2.90 | 76 | 1014.7 |
| 20260506185621 | 16 | 17 | 0.0 | 1.6 | 0.03 | 2.92 | 2.90 | 75 | 1014.9 |
| 20260506185421 | 16 | 322 | 0.0 | 1.6 | 0.03 | 2.92 | 2.90 | 75 | 1015.0 |
| 20260506185221 | 16 | 277 | 0.0 | 4.8 | 0.03 | 2.92 | 2.90 | 74 | 1015.1 |
| 20260506185044 | 16 | 355 | 0.0 | 4.8 | 0.03 | 2.92 | 2.90 | 75 | 1014.9 |
| 20260506184821 | 16 | 10 | 0.0 | 4.8 | 0.03 | 2.92 | 2.90 | 75 | 1014.9 |
| 20260506184623 | 16 | 355 | 0.0 | 4.8 | 0.03 | 2.92 | 2.90 | 74 | 1014.9 |
| 20260506184422 | 16 | 351 | 0.0 | 4.8 | 0.03 | 2.92 | 2.90 | 74 | 1014.9 |
| 20260506184221 | 16 | 14 | 0.0 | 4.8 | 0.03 | 2.92 | 2.90 | 74 | 1014.9 |
| 20260506184021 | 16 | 357 | 0.0 | 3.2 | 0.03 | 2.92 | 2.90 | 74 | 1014.9 |
| 20260506183821 | 16 | 354 | 0.0 | 3.2 | 0.03 | 2.92 | 2.90 | 75 | 1014.9 |
| 20260506183642 | 16 | 1 | 0.0 | 3.2 | 0.03 | 2.92 | 2.90 | 76 | 1014.8 |
| 20260506183421 | 16 | 17 | 0.0 | 3.2 | 0.03 | 2.92 | 2.90 | 75 | 1014.8 |
| 20260506183223 | 16 | 22 | 0.0 | 3.2 | 0.05 | 2.92 | 2.90 | 75 | 1014.8 |
| 20260506183042 | 16 | 39 | 1.6 | 3.2 | 0.05 | 2.92 | 2.90 | 76 | 1014.7 |
| 20260506182821 | 16 | 35 | 1.6 | 3.2 | 0.05 | 2.92 | 2.90 | 76 | 1014.6 |
| 20260506182621 | 16 | 38 | 1.6 | 4.8 | 0.05 | 2.92 | 2.90 | 77 | 1014.5 |
| 20260506182421 | 16 | 40 | 1.6 | 6.4 | 0.05 | 2.92 | 2.90 | 77 | 1014.3 |
| 20260506182222 | 16 | 36 | 1.6 | 6.4 | 0.03 | 2.90 | 2.87 | 76 | 1014.3 |
| 20260506182021 | 16 | 21 | 1.6 | 6.4 | 0.03 | 2.90 | 2.87 | 76 | 1014.2 |
| 20260506181842 | 16 | 20 | 0.0 | 6.4 | 0.03 | 2.90 | 2.87 | 76 | 1014.2 |
| 20260506181621 | 16 | 19 | 0.0 | 6.4 | 0.03 | 2.90 | 2.87 | 77 | 1014.2 |
| 20260506181421 | 16 | 313 | 1.6 | 4.8 | 0.03 | 2.90 | 2.87 | 76 | 1014.2 |
| 20260506181242 | 16 | 305 | 1.6 | 4.8 | 0.03 | 2.90 | 2.87 | 77 | 1014.2 |
| 20260506181021 | 16 | 309 | 1.6 | 4.8 | 0.03 | 2.90 | 2.87 | 78 | 1014.3 |
| 20260506180821 | 16 | 336 | 1.6 | 6.4 | 0.03 | 2.90 | 2.87 | 77 | 1014.2 |
| 20260506180621 | 16 | 338 | 1.6 | 6.4 | 0.03 | 2.90 | 2.87 | 76 | 1014.3 |
| 20260506180421 | 16 | 9 | 1.6 | 6.4 | 0.03 | 2.90 | 2.87 | 76 | 1014.4 |
| 20260506180222 | 16 | 41 | 1.6 | 6.4 | 0.03 | 2.90 | 2.87 | 78 | 1014.4 |
| 20260506180021 | 16 | 48 | 1.6 | 6.4 | 0.03 | 2.90 | 2.87 | 78 | 1014.2 |
| 20260506175843 | 16 | 53 | 1.6 | 4.8 | 0.03 | 2.90 | 2.87 | 80 | 1014.2 |
| 20260506175621 | 16 | 60 | 1.6 | 4.8 | 0.03 | 2.90 | 2.87 | 80 | 1014.3 |
| 20260506175421 | 16 | 47 | 1.6 | 4.8 | 0.03 | 2.90 | 2.87 | 80 | 1014.3 |
| 20260506175221 | 16 | 48 | 3.2 | 4.8 | 0.03 | 2.90 | 2.87 | 80 | 1014.2 |
| 20260506175042 | 15 | 36 | 3.2 | 6.4 | 0.03 | 2.90 | 2.87 | 81 | 1014.2 |
| 20260506174842 | 15 | 24 | 3.2 | 6.4 | 0.03 | 2.90 | 2.87 | 82 | 1014.1 |
| 20260506174621 | 15 | 5 | 3.2 | 6.4 | 0.03 | 2.90 | 2.87 | 81 | 1014.1 |
| 20260506174421 | 15 | 327 | 1.6 | 8.0 | 0.03 | 2.90 | 2.87 | 81 | 1014.0 |
| 20260506174221 | 15 | 322 | 1.6 | 8.0 | 0.03 | 2.90 | 2.87 | 82 | 1014.0 |
| 20260506174021 | 15 | 287 | 1.6 | 8.0 | 0.03 | 2.90 | 2.87 | 82 | 1014.1 |
| 20260506173843 | 15 | 313 | 1.6 | 8.0 | 0.03 | 2.90 | 2.87 | 83 | 1014.0 |
| 20260506173621 | 15 | 6 | 1.6 | 8.0 | 0.05 | 2.90 | 2.87 | 83 | 1014.1 |
| 20260506173421 | 15 | 354 | 1.6 | 6.4 | 0.05 | 2.90 | 2.87 | 86 | 1013.9 |
| 20260506173242 | 15 | 342 | 1.6 | 6.4 | 0.03 | 2.87 | 2.84 | 86 | 1013.9 |
| 20260506173022 | 15 | 349 | 1.6 | 6.4 | 0.03 | 2.87 | 2.84 | 87 | 1013.9 |
| 20260506172821 | 15 | 352 | 1.6 | 6.4 | 0.03 | 2.87 | 2.84 | 86 | 1014.0 |
| 20260506172621 | 15 | 351 | 1.6 | 6.4 | 0.03 | 2.87 | 2.84 | 85 | 1013.9 |
| 20260506172422 | 15 | 40 | 1.6 | 6.4 | 0.03 | 2.87 | 2.84 | 88 | 1014.0 |
| 20260506172221 | 15 | 34 | 1.6 | 6.4 | 0.03 | 2.87 | 2.84 | 87 | 1014.0 |
| 20260506172021 | 15 | 345 | 1.6 | 6.4 | 0.03 | 2.87 | 2.84 | 87 | 1014.0 |
| 20260506171821 | 15 | 303 | 1.6 | 9.7 | 0.03 | 2.87 | 2.84 | 86 | 1014.1 |
| 20260506171621 | 15 | 290 | 1.6 | 9.7 | 0.03 | 2.87 | 2.84 | 86 | 1014.2 |
| 20260506171421 | 15 | 282 | 1.6 | 9.7 | 0.03 | 2.87 | 2.84 | 86 | 1014.4 |
| 20260506171221 | 15 | 285 | 1.6 | 9.7 | 0.03 | 2.87 | 2.84 | 85 | 1014.5 |
| 20260506171021 | 15 | 303 | 1.6 | 9.7 | 0.03 | 2.87 | 2.84 | 86 | 1014.4 |
| 20260506170821 | 15 | 322 | 1.6 | 9.7 | 0.03 | 2.87 | 2.84 | 87 | 1014.4 |
| 20260506170643 | 15 | 302 | 1.6 | 6.4 | 0.03 | 2.87 | 2.84 | 88 | 1014.4 |
| 20260506170421 | 14 | 284 | 1.6 | 6.4 | 0.03 | 2.87 | 2.84 | 87 | 1014.4 |
| 20260506170222 | 14 | 284 | 1.6 | 6.4 | 0.03 | 2.87 | 2.84 | 87 | 1014.5 |
| 20260506170042 | 14 | 279 | 1.6 | 6.4 | 0.03 | 2.87 | 2.84 | 88 | 1014.5 |
| 20260506165821 | 14 | 279 | 1.6 | 6.4 | 0.03 | 2.87 | 2.84 | 85 | 1014.6 |
| 20260506165622 | 14 | 278 | 1.6 | 6.4 | 0.03 | 2.87 | 2.84 | 85 | 1014.6 |
| 20260506165422 | 14 | 280 | 1.6 | 4.8 | 0.03 | 2.87 | 2.84 | 88 | 1014.6 |
| 20260506165221 | 14 | 284 | 1.6 | 6.4 | 0.03 | 2.87 | 2.84 | 88 | 1014.6 |
| 20260506165022 | 14 | 303 | 1.6 | 6.4 | 0.03 | 2.87 | 2.84 | 88 | 1014.6 |
| 20260506164842 | 14 | 357 | 1.6 | 6.4 | 0.05 | 2.87 | 2.84 | 88 | 1014.6 |
| 20260506164642 | 14 | 30 | 1.6 | 6.4 | 0.05 | 2.87 | 2.84 | 88 | 1014.6 |
| 20260506164421 | 13 | 50 | 1.6 | 6.4 | 0.05 | 2.87 | 2.84 | 90 | 1014.6 |
| 20260506164221 | 13 | 48 | 1.6 | 6.4 | 0.05 | 2.87 | 2.84 | 90 | 1014.5 |
| 20260506164044 | 13 | 41 | 1.6 | 6.4 | 0.05 | 2.87 | 2.84 | 90 | 1014.5 |
| 20260506163842 | 13 | 39 | 1.6 | 6.4 | 0.05 | 2.87 | 2.84 | 89 | 1014.6 |
| 20260506163624 | 13 | 36 | 1.6 | 6.4 | 0.03 | 2.84 | 2.82 | 91 | 1014.6 |
| 20260506163442 | 13 | 33 | 1.6 | 6.4 | 0.03 | 2.84 | 2.82 | 91 | 1014.7 |
| 20260506163221 | 13 | 38 | 1.6 | 6.4 | 0.03 | 2.84 | 2.82 | 90 | 1014.7 |
| 20260506163022 | 13 | 39 | 1.6 | 6.4 | 0.03 | 2.84 | 2.82 | 90 | 1014.7 |
| 20260506162821 | 13 | 38 | 1.6 | 6.4 | 0.03 | 2.84 | 2.82 | 91 | 1014.8 |
| 20260506162621 | 13 | 39 | 1.6 | 6.4 | 0.03 | 2.84 | 2.82 | 91 | 1014.9 |
| 20260506162423 | 13 | 49 | 1.6 | 8.0 | 0.03 | 2.84 | 2.82 | 91 | 1014.8 |
| 20260506162221 | 13 | 49 | 1.6 | 8.0 | 0.03 | 2.84 | 2.82 | 91 | 1014.8 |
| 20260506162022 | 13 | 49 | 1.6 | 8.0 | 0.03 | 2.84 | 2.82 | 91 | 1014.8 |
| 20260506161843 | 13 | 49 | 1.6 | 8.0 | 0.03 | 2.84 | 2.82 | 92 | 1014.8 |
| 20260506161622 | 13 | 16 | 1.6 | 8.0 | 0.03 | 2.84 | 2.82 | 92 | 1014.7 |
| 20260506161422 | 13 | 337 | 1.6 | 8.0 | 0.03 | 2.84 | 2.82 | 93 | 1014.7 |
| 20260506161221 | 13 | 312 | 1.6 | 8.0 | 0.03 | 2.84 | 2.82 | 92 | 1014.8 |
| 20260506161021 | 12 | 301 | 1.6 | 8.0 | 0.03 | 2.84 | 2.82 | 91 | 1014.8 |
| 20260506160821 | 12 | 280 | 1.6 | 6.4 | 0.05 | 2.84 | 2.82 | 90 | 1014.8 |
| 20260506160642 | 12 | 281 | 1.6 | 6.4 | 0.05 | 2.84 | 2.82 | 92 | 1014.8 |
| 20260506160421 | 12 | 277 | 1.6 | 6.4 | 0.05 | 2.84 | 2.82 | 91 | 1014.7 |
| 20260506160222 | 12 | 286 | 1.6 | 6.4 | 0.05 | 2.84 | 2.82 | 92 | 1014.6 |
| 20260506160021 | 12 | 304 | 1.6 | 6.4 | 0.05 | 2.84 | 2.82 | 92 | 1014.5 |
| 20260506155842 | 12 | 304 | 1.6 | 6.4 | 0.05 | 2.84 | 2.82 | 92 | 1014.6 |
| 20260506155622 | 12 | 314 | 0.0 | 4.8 | 0.05 | 2.84 | 2.82 | 92 | 1014.6 |
| 20260506155421 | 13 | 1 | 0.0 | 4.8 | 0.05 | 2.84 | 2.82 | 93 | 1014.6 |
| 20260506155222 | 13 | 336 | 0.0 | 4.8 | 0.05 | 2.84 | 2.82 | 94 | 1014.7 |
| 20260506155021 | 13 | 288 | 0.0 | 4.8 | 0.05 | 2.84 | 2.82 | 92 | 1014.5 |
| 20260506154842 | 13 | 312 | 0.0 | 4.8 | 0.03 | 2.82 | 2.79 | 94 | 1014.4 |
| 20260506154622 | 13 | 39 | 0.0 | 3.2 | 0.03 | 2.82 | 2.79 | 94 | 1014.3 |
| 20260506154421 | 13 | 102 | 0.0 | 4.8 | 0.03 | 2.82 | 2.79 | 94 | 1014.3 |
| 20260506154221 | 13 | 104 | 0.0 | 4.8 | 0.03 | 2.82 | 2.79 | 96 | 1014.3 |
| 20260506154021 | 13 | 66 | 0.0 | 4.8 | 0.03 | 2.82 | 2.79 | 97 | 1014.3 |
| 20260506153823 | 13 | 62 | 0.0 | 4.8 | 0.03 | 2.82 | 2.79 | 97 | 1014.3 |
| 20260506153621 | 12 | 61 | 0.0 | 4.8 | 0.03 | 2.82 | 2.79 | 97 | 1014.3 |
| 20260506153423 | 12 | 40 | 0.0 | 4.8 | 0.03 | 2.82 | 2.79 | 97 | 1014.2 |
| 20260506153221 | 12 | 24 | 1.6 | 4.8 | 0.05 | 2.82 | 2.79 | 97 | 1014.2 |
| 20260506153021 | 12 | 34 | 1.6 | 4.8 | 0.05 | 2.82 | 2.79 | 98 | 1014.1 |
| 20260506152821 | 12 | 35 | 1.6 | 4.8 | 0.05 | 2.82 | 2.79 | 98 | 1014.1 |
| 20260506152621 | 12 | 35 | 1.6 | 4.8 | 0.05 | 2.82 | 2.79 | 98 | 1014.2 |
| 20260506152421 | 12 | 29 | 1.6 | 4.8 | 0.05 | 2.82 | 2.79 | 98 | 1014.1 |
| 20260506152221 | 12 | 31 | 1.6 | 4.8 | 0.05 | 2.82 | 2.79 | 98 | 1014.0 |
| 20260506152021 | 11 | 24 | 0.0 | 4.8 | 0.05 | 2.82 | 2.79 | 99 | 1014.0 |
| 20260506151842 | 11 | 11 | 0.0 | 3.2 | 0.05 | 2.82 | 2.79 | 99 | 1014.0 |
| 20260506151622 | 11 | 10 | 1.6 | 3.2 | 0.05 | 2.82 | 2.79 | 98 | 1014.0 |
| 20260506151422 | 11 | 3 | 1.6 | 3.2 | 0.05 | 2.82 | 2.79 | 99 | 1013.9 |
| 20260506151221 | 11 | 333 | 1.6 | 3.2 | 0.05 | 2.82 | 2.79 | 99 | 1013.8 |
| 20260506151021 | 11 | 1 | 1.6 | 4.8 | 0.05 | 2.82 | 2.79 | 99 | 1013.7 |
| 20260506150823 | 11 | 16 | 1.6 | 4.8 | 0.03 | 2.79 | 2.77 | 98 | 1013.6 |
| 20260506150621 | 11 | 15 | 1.6 | 6.4 | 0.03 | 2.79 | 2.77 | 98 | 1013.6 |
| 20260506150442 | 11 | 28 | 1.6 | 6.4 | 0.03 | 2.79 | 2.77 | 98 | 1013.6 |
| 20260506150242 | 10 | 36 | 1.6 | 6.4 | 0.05 | 2.79 | 2.77 | 98 | 1013.6 |
| 20260506150022 | 10 | 41 | 1.6 | 6.4 | 0.05 | 2.79 | 2.77 | 98 | 1013.6 |
| 20260506145822 | 10 | 37 | 1.6 | 6.4 | 0.05 | 2.79 | 2.77 | 98 | 1013.6 |
| 20260506145621 | 10 | 38 | 1.6 | 8.0 | 0.05 | 2.79 | 2.77 | 98 | 1013.7 |
| 20260506145421 | 10 | 35 | 1.6 | 8.0 | 0.05 | 2.79 | 2.77 | 98 | 1013.7 |
| 20260506145221 | 10 | 32 | 1.6 | 8.0 | 0.05 | 2.79 | 2.77 | 98 | 1013.7 |
| 20260506145022 | 10 | 29 | 1.6 | 8.0 | 0.05 | 2.79 | 2.77 | 99 | 1013.9 |
| 20260506144842 | 10 | 25 | 1.6 | 8.0 | 0.05 | 2.79 | 2.77 | 99 | 1013.9 |
| 20260506144621 | 11 | 28 | 1.6 | 8.0 | 0.05 | 2.79 | 2.77 | 99 | 1013.7 |
| 20260506144421 | 10 | 32 | 1.6 | 8.0 | 0.05 | 2.79 | 2.77 | 99 | 1013.7 |
| 20260506144221 | 10 | 34 | 1.6 | 8.0 | 0.05 | 2.79 | 2.77 | 99 | 1013.7 |
| 20260506144021 | 10 | 35 | 1.6 | 8.0 | 0.05 | 2.79 | 2.77 | 99 | 1013.7 |
| 20260506143821 | 10 | 40 | 1.6 | 8.0 | 0.08 | 2.79 | 2.77 | 99 | 1013.7 |
| 20260506143622 | 11 | 38 | 1.6 | 3.2 | 0.08 | 2.79 | 2.77 | 99 | 1013.7 |
| 20260506143443 | 10 | 42 | 1.6 | 6.4 | 0.08 | 2.79 | 2.77 | 99 | 1013.8 |
| 20260506143243 | 10 | 38 | 1.6 | 6.4 | 0.05 | 2.77 | 2.74 | 99 | 1013.8 |
| 20260506143023 | 10 | 37 | 1.6 | 6.4 | 0.05 | 2.77 | 2.74 | 99 | 1013.9 |
| 20260506142843 | 10 | 34 | 1.6 | 6.4 | 0.05 | 2.77 | 2.74 | 99 | 1013.8 |
| 20260506142621 | 10 | 29 | 1.6 | 6.4 | 0.05 | 2.77 | 2.74 | 99 | 1013.8 |
| 20260506142422 | 10 | 24 | 1.6 | 6.4 | 0.05 | 2.77 | 2.74 | 99 | 1013.7 |
| 20260506142222 | 10 | 35 | 0.0 | 4.8 | 0.05 | 2.77 | 2.74 | 99 | 1013.8 |
| 20260506142021 | 10 | 27 | 0.0 | 4.8 | 0.08 | 2.77 | 2.74 | 99 | 1013.9 |
| 20260506141822 | 10 | 39 | 0.0 | 3.2 | 0.08 | 2.77 | 2.74 | 99 | 1013.9 |
| 20260506141621 | 10 | 46 | 0.0 | 3.2 | 0.08 | 2.77 | 2.74 | 99 | 1013.7 |
| 20260506141442 | 10 | 40 | 0.0 | 3.2 | 0.08 | 2.77 | 2.74 | 99 | 1013.6 |
| 20260506141221 | 10 | 359 | 0.0 | 3.2 | 0.08 | 2.77 | 2.74 | 99 | 1013.7 |
| 20260506141043 | 10 | 17 | 1.6 | 3.2 | 0.08 | 2.77 | 2.74 | 99 | 1013.8 |
| 20260506140821 | 10 | 17 | 1.6 | 3.2 | 0.10 | 2.77 | 2.74 | 99 | 1013.8 |
| 20260506140622 | 10 | 27 | 1.6 | 3.2 | 0.10 | 2.77 | 2.74 | 99 | 1013.7 |
| 20260506140422 | 10 | 28 | 1.6 | 3.2 | 0.10 | 2.77 | 2.74 | 99 | 1013.6 |
| 20260506140221 | 10 | 32 | 1.6 | 3.2 | 0.08 | 2.74 | 2.72 | 99 | 1013.5 |
| 20260506140021 | 10 | 39 | 1.6 | 4.8 | 0.08 | 2.74 | 2.72 | 99 | 1013.4 |
| 20260506135842 | 10 | 36 | 1.6 | 4.8 | 0.08 | 2.74 | 2.72 | 99 | 1013.4 |
| 20260506135622 | 10 | 29 | 1.6 | 4.8 | 0.08 | 2.74 | 2.72 | 99 | 1013.3 |
| 20260506135422 | 10 | 35 | 1.6 | 4.8 | 0.10 | 2.74 | 2.72 | 99 | 1013.4 |
| 20260506135243 | 10 | 38 | 1.6 | 4.8 | 0.10 | 2.74 | 2.72 | 99 | 1013.3 |
| 20260506135022 | 10 | 35 | 1.6 | 4.8 | 0.10 | 2.74 | 2.72 | 99 | 1013.3 |
| 20260506134821 | 10 | 39 | 1.6 | 4.8 | 0.10 | 2.74 | 2.72 | 99 | 1013.1 |
| 20260506134621 | 10 | 42 | 3.2 | 6.4 | 0.10 | 2.74 | 2.72 | 99 | 1013.1 |
| 20260506134421 | 10 | 47 | 3.2 | 6.4 | 0.10 | 2.74 | 2.72 | 99 | 1013.1 |
| 20260506134221 | 10 | 50 | 3.2 | 8.0 | 0.10 | 2.74 | 2.72 | 99 | 1013.1 |
| 20260506134022 | 10 | 52 | 3.2 | 11.3 | 0.13 | 2.74 | 2.72 | 99 | 1013.0 |
| 20260506133842 | 10 | 47 | 3.2 | 11.3 | 0.10 | 2.72 | 2.69 | 99 | 1012.9 |
| 20260506133621 | 10 | 54 | 3.2 | 11.3 | 0.10 | 2.72 | 2.69 | 98 | 1012.9 |
| 20260506133421 | 10 | 49 | 1.6 | 11.3 | 0.10 | 2.72 | 2.69 | 98 | 1012.9 |
| 20260506133221 | 10 | 43 | 1.6 | 11.3 | 0.10 | 2.72 | 2.69 | 99 | 1012.8 |
| 20260506133021 | 10 | 39 | 1.6 | 11.3 | 0.13 | 2.72 | 2.69 | 99 | 1012.8 |
| 20260506132843 | 10 | 41 | 1.6 | 11.3 | 0.13 | 2.72 | 2.69 | 99 | 1012.8 |
| 20260506132621 | 10 | 31 | 1.6 | 9.7 | 0.13 | 2.72 | 2.69 | 99 | 1012.8 |
| 20260506132442 | 10 | 29 | 1.6 | 9.7 | 0.13 | 2.72 | 2.69 | 99 | 1012.8 |
| 20260506132221 | 10 | 36 | 1.6 | 6.4 | 0.13 | 2.72 | 2.69 | 99 | 1012.9 |
| 20260506132021 | 10 | 38 | 1.6 | 6.4 | 0.13 | 2.69 | 2.67 | 99 | 1012.9 |
| 20260506131821 | 10 | 38 | 1.6 | 6.4 | 0.13 | 2.69 | 2.67 | 99 | 1012.9 |
| 20260506131643 | 10 | 37 | 1.6 | 6.4 | 0.13 | 2.69 | 2.67 | 99 | 1012.9 |
| 20260506131421 | 10 | 30 | 1.6 | 6.4 | 0.15 | 2.69 | 2.67 | 99 | 1012.7 |
| 20260506131222 | 10 | 28 | 1.6 | 6.4 | 0.15 | 2.69 | 2.67 | 99 | 1012.8 |
| 20260506131021 | 10 | 20 | 1.6 | 11.3 | 0.15 | 2.69 | 2.67 | 99 | 1012.8 |
| 20260506130843 | 10 | 18 | 1.6 | 11.3 | 0.15 | 2.67 | 2.64 | 99 | 1012.9 |
| 20260506130622 | 10 | 25 | 1.6 | 11.3 | 0.15 | 2.67 | 2.64 | 99 | 1012.9 |
| 20260506130422 | 10 | 29 | 1.6 | 11.3 | 0.18 | 2.67 | 2.64 | 99 | 1012.9 |
| 20260506130221 | 10 | 31 | 1.6 | 11.3 | 0.18 | 2.67 | 2.64 | 99 | 1012.9 |
| 20260506130021 | 10 | 39 | 1.6 | 6.4 | 0.20 | 2.67 | 2.64 | 99 | 1012.9 |
| 20260506125821 | 10 | 42 | 1.6 | 6.4 | 0.20 | 2.67 | 2.64 | 99 | 1012.9 |
| 20260506125621 | 10 | 29 | 1.6 | 6.4 | 0.20 | 2.67 | 2.64 | 99 | 1012.9 |
| 20260506125443 | 10 | 36 | 1.6 | 6.4 | 0.20 | 2.64 | 2.62 | 99 | 1012.9 |
| 20260506125242 | 10 | 31 | 1.6 | 6.4 | 0.20 | 2.64 | 2.62 | 99 | 1012.8 |
| 20260506125043 | 10 | 44 | 1.6 | 6.4 | 0.20 | 2.64 | 2.62 | 99 | 1012.9 |
| 20260506124843 | 10 | 52 | 1.6 | 6.4 | 0.23 | 2.64 | 2.62 | 99 | 1012.8 |
| 20260506124621 | 10 | 45 | 1.6 | 6.4 | 0.23 | 2.64 | 2.62 | 99 | 1012.9 |
| 20260506124422 | 10 | 28 | 1.6 | 6.4 | 0.25 | 2.64 | 2.62 | 99 | 1012.8 |
| 20260506124221 | 10 | 291 | 0.0 | 6.4 | 0.25 | 2.64 | 2.62 | 99 | 1012.8 |
| 20260506124022 | 10 | 277 | 0.0 | 6.4 | 0.23 | 2.62 | 2.59 | 99 | 1012.7 |
| 20260506123842 | 10 | 270 | 0.0 | 6.4 | 0.25 | 2.62 | 2.59 | 99 | 1012.8 |
| 20260506123642 | 10 | 274 | 0.0 | 6.4 | 0.25 | 2.62 | 2.59 | 99 | 1012.8 |
| 20260506123443 | 10 | 275 | 0.0 | 6.4 | 0.28 | 2.62 | 2.59 | 99 | 1012.7 |
| 20260506123243 | 10 | 277 | 0.0 | 1.6 | 0.28 | 2.62 | 2.59 | 99 | 1012.6 |
| 20260506123021 | 10 | 338 | 0.0 | 4.8 | 0.28 | 2.59 | 2.57 | 99 | 1012.6 |
| 20260506122821 | 10 | 338 | 0.0 | 4.8 | 0.28 | 2.59 | 2.57 | 99 | 1012.5 |
| 20260506122643 | 10 | 13 | 0.0 | 4.8 | 0.30 | 2.59 | 2.57 | 99 | 1012.5 |
| 20260506122421 | 10 | 36 | 0.0 | 4.8 | 0.30 | 2.59 | 2.57 | 99 | 1012.5 |
| 20260506122243 | 10 | 32 | 0.0 | 4.8 | 0.30 | 2.59 | 2.57 | 99 | 1012.3 |
| 20260506122021 | 10 | 24 | 0.0 | 3.2 | 0.30 | 2.57 | 2.54 | 99 | 1012.4 |
| 20260506121821 | 10 | 43 | 1.6 | 4.8 | 0.30 | 2.57 | 2.54 | 99 | 1012.3 |
| 20260506121621 | 10 | 45 | 1.6 | 6.4 | 0.33 | 2.57 | 2.54 | 99 | 1012.3 |
| 20260506121421 | 10 | 45 | 1.6 | 6.4 | 0.30 | 2.54 | 2.51 | 99 | 1012.3 |
| 20260506121221 | 10 | 38 | 1.6 | 6.4 | 0.33 | 2.54 | 2.51 | 99 | 1012.2 |
| 20260506121021 | 10 | 31 | 1.6 | 6.4 | 0.33 | 2.54 | 2.51 | 99 | 1012.2 |
| 20260506120821 | 10 | 22 | 1.6 | 6.4 | 0.33 | 2.51 | 2.49 | 99 | 1012.3 |
| 20260506120622 | 10 | 16 | 1.6 | 6.4 | 0.33 | 2.51 | 2.49 | 99 | 1012.2 |
| 20260506120421 | 10 | 13 | 1.6 | 6.4 | 0.30 | 2.49 | 2.46 | 99 | 1012.2 |
| 20260506120222 | 10 | 21 | 1.6 | 6.4 | 0.33 | 2.49 | 2.46 | 99 | 1012.3 |
| 20260506120022 | 10 | 37 | 1.6 | 6.4 | 0.30 | 2.46 | 2.44 | 99 | 1012.2 |
| 20260506115821 | 10 | 16 | 1.6 | 6.4 | 0.30 | 2.46 | 2.44 | 99 | 1012.1 |
| 20260506115622 | 10 | 327 | 1.6 | 4.8 | 0.30 | 2.46 | 2.44 | 99 | 1012.1 |
| 20260506115421 | 10 | 292 | 0.0 | 4.8 | 0.30 | 2.44 | 2.41 | 99 | 1012.2 |
| 20260506115221 | 10 | 291 | 0.0 | 4.8 | 0.30 | 2.44 | 2.41 | 99 | 1012.1 |
| 20260506115021 | 10 | 277 | 0.0 | 4.8 | 0.30 | 2.44 | 2.41 | 99 | 1012.0 |
| 20260506114822 | 10 | 281 | 0.0 | 4.8 | 0.28 | 2.41 | 2.39 | 99 | 1012.2 |
| 20260506114621 | 10 | 325 | 1.6 | 4.8 | 0.30 | 2.41 | 2.39 | 99 | 1012.0 |
| 20260506114422 | 10 | 29 | 1.6 | 8.0 | 0.28 | 2.39 | 2.36 | 99 | 1011.8 |
| 20260506114221 | 10 | 40 | 1.6 | 8.0 | 0.28 | 2.39 | 2.36 | 99 | 1011.8 |
| 20260506114022 | 10 | 42 | 1.6 | 8.0 | 0.28 | 2.39 | 2.36 | 99 | 1011.9 |
| 20260506113821 | 10 | 36 | 0.0 | 8.0 | 0.25 | 2.36 | 2.34 | 99 | 1011.7 |
| 20260506113642 | 10 | 37 | 0.0 | 8.0 | 0.25 | 2.36 | 2.34 | 99 | 1011.8 |
| 20260506113421 | 10 | 19 | 0.0 | 6.4 | 0.25 | 2.34 | 2.31 | 99 | 1011.7 |
| 20260506113221 | 10 | 297 | 0.0 | 6.4 | 0.25 | 2.34 | 2.31 | 99 | 1011.8 |
| 20260506113021 | 10 | 280 | 0.0 | 6.4 | 0.23 | 2.31 | 2.29 | 99 | 1011.8 |
| 20260506112843 | 10 | 278 | 0.0 | 6.4 | 0.23 | 2.31 | 2.29 | 99 | 1011.9 |
| 20260506112621 | 10 | 279 | 0.0 | 6.4 | 0.20 | 2.29 | 2.29 | 99 | 1011.9 |
| 20260506112421 | 10 | 278 | 0.0 | 6.4 | 0.20 | 2.29 | 2.26 | 99 | 1011.8 |
| 20260506112222 | 10 | 283 | 0.0 | 3.2 | 0.20 | 2.29 | 2.26 | 99 | 1011.9 |
| 20260506112023 | 10 | 291 | 0.0 | 1.6 | 0.18 | 2.26 | 2.24 | 99 | 1011.5 |
| 20260506111822 | 11 | 294 | 0.0 | 1.6 | 0.18 | 2.26 | 2.24 | 99 | 1011.2 |
| 20260506111622 | 11 | 291 | 0.0 | 1.6 | 0.18 | 2.24 | 2.21 | 99 | 1011.3 |
| 20260506111442 | 11 | 294 | 0.0 | 3.2 | 0.18 | 2.24 | 2.21 | 99 | 1011.4 |
| 20260506111222 | 11 | 10 | 0.0 | 3.2 | 0.15 | 2.21 | 2.18 | 99 | 1011.4 |
| 20260506111021 | 11 | 295 | 1.6 | 4.8 | 0.15 | 2.21 | 2.18 | 98 | 1011.4 |
| 20260506110821 | 11 | 284 | 1.6 | 4.8 | 0.15 | 2.18 | 2.16 | 98 | 1011.6 |
| 20260506110642 | 11 | 284 | 1.6 | 4.8 | 0.15 | 2.18 | 2.16 | 98 | 1011.4 |
| 20260506110421 | 11 | 284 | 1.6 | 6.4 | 0.15 | 2.18 | 2.16 | 98 | 1011.1 |
| 20260506110222 | 11 | 281 | 1.6 | 12.9 | 0.13 | 2.16 | 2.13 | 98 | 1011.3 |
| 20260506110021 | 11 | 281 | 1.6 | 12.9 | 0.15 | 2.16 | 2.13 | 98 | 1011.6 |
| 20260506105822 | 11 | 282 | 1.6 | 12.9 | 0.15 | 2.16 | 2.13 | 98 | 1011.4 |
| 20260506105621 | 11 | 290 | 1.6 | 12.9 | 0.15 | 2.16 | 2.13 | 98 | 1011.5 |
| 20260506105422 | 11 | 295 | 1.6 | 12.9 | 0.15 | 2.13 | 2.11 | 98 | 1011.9 |
| 20260506105221 | 11 | 304 | 0.0 | 8.0 | 0.15 | 2.13 | 2.11 | 98 | 1011.4 |
| 20260506105021 | 11 | 304 | 0.0 | 8.0 | 0.15 | 2.13 | 2.11 | 98 | 1011.2 |
| 20260506104822 | 11 | 311 | 0.0 | 8.0 | 0.18 | 2.13 | 2.11 | 98 | 1011.0 |
| 20260506104621 | 11 | 285 | 0.0 | 8.0 | 0.15 | 2.11 | 2.08 | 98 | 1011.1 |
| 20260506104421 | 11 | 281 | 0.0 | 8.0 | 0.18 | 2.11 | 2.08 | 98 | 1011.4 |
| 20260506104243 | 11 | 29 | 0.0 | 3.2 | 0.18 | 2.11 | 2.08 | 98 | 1010.9 |
| 20260506104021 | 11 | 34 | 0.0 | 3.2 | 0.20 | 2.11 | 2.08 | 98 | 1010.6 |
| 20260506103822 | 11 | 40 | 0.0 | 3.2 | 0.20 | 2.11 | 2.08 | 98 | 1010.6 |
| 20260506103621 | 11 | 38 | 0.0 | 3.2 | 0.23 | 2.11 | 2.08 | 98 | 1010.7 |
| 20260506103442 | 11 | 42 | 0.0 | 3.2 | 0.20 | 2.08 | 2.08 | 98 | 1010.5 |
| 20260506103221 | 11 | 43 | 0.0 | 3.2 | 0.23 | 2.08 | 2.06 | 98 | 1010.5 |
| 20260506103024 | 11 | 43 | 0.0 | 3.2 | 0.23 | 2.08 | 2.06 | 98 | 1010.5 |
| 20260506102821 | 11 | 43 | 0.0 | 4.8 | 0.25 | 2.08 | 2.06 | 98 | 1010.4 |
| 20260506102623 | 11 | 36 | 0.0 | 4.8 | 0.28 | 2.08 | 2.06 | 98 | 1010.6 |
| 20260506102421 | 11 | 36 | 0.0 | 4.8 | 0.30 | 2.08 | 2.06 | 98 | 1010.5 |
| 20260506102221 | 11 | 35 | 0.0 | 4.8 | 0.30 | 2.08 | 2.06 | 98 | 1010.5 |
| 20260506102021 | 11 | 37 | 0.0 | 4.8 | 0.33 | 2.08 | 2.06 | 98 | 1010.4 |
| 20260506101822 | 11 | 35 | 0.0 | 3.2 | 0.36 | 2.08 | 2.06 | 98 | 1010.4 |
| 20260506101622 | 11 | 40 | 0.0 | 3.2 | 0.36 | 2.06 | 2.03 | 98 | 1010.5 |
| 20260506101421 | 11 | 35 | 0.0 | 3.2 | 0.38 | 2.06 | 2.03 | 98 | 1010.5 |
| 20260506101221 | 11 | 34 | 0.0 | 3.2 | 0.41 | 2.06 | 2.03 | 98 | 1010.5 |
| 20260506101022 | 11 | 26 | 0.0 | 3.2 | 0.43 | 2.06 | 2.03 | 98 | 1010.4 |
| 20260506100844 | 11 | 291 | 0.0 | 1.6 | 0.46 | 2.03 | 2.03 | 98 | 1010.3 |
| 20260506100622 | 11 | 294 | 0.0 | 1.6 | 0.48 | 2.03 | 2.01 | 98 | 1010.2 |
| 20260506100422 | 11 | 294 | 0.0 | 1.6 | 0.48 | 2.03 | 2.01 | 98 | 1010.3 |
| 20260506100222 | 11 | 307 | 0.0 | 1.6 | 0.48 | 2.03 | 2.01 | 98 | 1010.4 |
| 20260506100022 | 11 | 335 | 0.0 | 1.6 | 0.46 | 2.01 | 1.98 | 98 | 1010.5 |
| 20260506095823 | 11 | 287 | 0.0 | 4.8 | 0.48 | 2.01 | 1.98 | 98 | 1010.3 |
| 20260506095643 | 11 | 286 | 0.0 | 4.8 | 0.53 | 2.01 | 1.98 | 98 | 1010.3 |
| 20260506095422 | 11 | 285 | 0.0 | 4.8 | 0.51 | 1.98 | 1.96 | 98 | 1010.4 |
| 20260506095222 | 11 | 290 | 0.0 | 4.8 | 0.53 | 1.98 | 1.96 | 98 | 1010.3 |
| 20260506095021 | 11 | 284 | 0.0 | 4.8 | 0.56 | 1.98 | 1.96 | 98 | 1010.3 |
| 20260506094822 | 11 | 286 | 0.0 | 3.2 | 0.61 | 1.96 | 1.93 | 98 | 1010.4 |
| 20260506094621 | 11 | 288 | 0.0 | 4.8 | 0.66 | 1.96 | 1.93 | 98 | 1010.3 |
| 20260506094422 | 11 | 286 | 0.0 | 4.8 | 0.71 | 1.93 | 1.91 | 98 | 1010.3 |
| 20260506094221 | 11 | 283 | 0.0 | 4.8 | 0.74 | 1.93 | 1.91 | 98 | 1010.3 |
| 20260506094023 | 11 | 285 | 0.0 | 4.8 | 0.71 | 1.91 | 1.88 | 98 | 1010.3 |
| 20260506093843 | 11 | 291 | 0.0 | 4.8 | 0.71 | 1.91 | 1.88 | 98 | 1010.3 |
| 20260506093622 | 11 | 290 | 0.0 | 3.2 | 0.71 | 1.88 | 1.85 | 98 | 1010.3 |
| 20260506093444 | 11 | 292 | 0.0 | 3.2 | 0.74 | 1.88 | 1.85 | 98 | 1010.3 |
| 20260506093222 | 11 | 304 | 0.0 | 3.2 | 0.74 | 1.85 | 1.83 | 98 | 1010.3 |
| 20260506093022 | 11 | 302 | 0.0 | 3.2 | 0.79 | 1.85 | 1.83 | 98 | 1010.3 |
| 20260506092821 | 11 | 281 | 0.0 | 1.6 | 0.81 | 1.83 | 1.80 | 98 | 1010.4 |
| 20260506092621 | 11 | 281 | 0.0 | 3.2 | 0.81 | 1.80 | 1.78 | 98 | 1010.3 |
| 20260506092422 | 11 | 284 | 0.0 | 3.2 | 0.79 | 1.78 | 1.78 | 97 | 1010.3 |
| 20260506092222 | 11 | 283 | 0.0 | 3.2 | 0.81 | 1.78 | 1.75 | 97 | 1010.2 |
| 20260506092022 | 11 | 276 | 0.0 | 4.8 | 0.81 | 1.75 | 1.73 | 97 | 1010.2 |
| 20260506091821 | 11 | 279 | 0.0 | 4.8 | 0.79 | 1.73 | 1.70 | 97 | 1010.1 |
| 20260506091622 | 11 | 292 | 0.0 | 4.8 | 0.76 | 1.70 | 1.68 | 97 | 1010.3 |
| 20260506091422 | 11 | 292 | 0.0 | 4.8 | 0.76 | 1.68 | 1.65 | 97 | 1010.3 |
| 20260506091222 | 11 | 290 | 0.0 | 4.8 | 0.74 | 1.65 | 1.63 | 98 | 1010.4 |
| 20260506091022 | 11 | 296 | 0.0 | 3.2 | 0.71 | 1.63 | 1.60 | 98 | 1010.6 |
| 20260506090844 | 11 | 293 | 0.0 | 3.2 | 0.66 | 1.57 | 1.55 | 97 | 1010.5 |
| 20260506090621 | 11 | 285 | 0.0 | 3.2 | 0.64 | 1.55 | 1.52 | 97 | 1010.5 |
| 20260506090443 | 11 | 284 | 0.0 | 3.2 | 0.64 | 1.55 | 1.52 | 97 | 1010.4 |
| 20260506090243 | 11 | 283 | 0.0 | 3.2 | 0.64 | 1.55 | 1.52 | 97 | 1010.2 |
| 20260506090022 | 11 | 277 | 0.0 | 3.2 | 0.64 | 1.55 | 1.52 | 97 | 1010.2 |
| 20260506085844 | 11 | 272 | 0.0 | 1.6 | 0.61 | 1.52 | 1.50 | 97 | 1010.0 |
| 20260506085622 | 11 | 278 | 0.0 | 3.2 | 0.56 | 1.47 | 1.47 | 97 | 1009.8 |
| 20260506085421 | 11 | 278 | 0.0 | 3.2 | 0.56 | 1.47 | 1.45 | 97 | 1009.8 |
| 20260506085222 | 11 | 277 | 0.0 | 3.2 | 0.56 | 1.45 | 1.42 | 97 | 1009.9 |
| 20260506085021 | 11 | 280 | 0.0 | 4.8 | 0.53 | 1.42 | 1.40 | 97 | 1010.1 |
| 20260506084822 | 11 | 283 | 0.0 | 4.8 | 0.48 | 1.35 | 1.32 | 97 | 1010.1 |
| 20260506084623 | 11 | 293 | 1.6 | 4.8 | 0.51 | 1.30 | 1.27 | 97 | 1010.1 |
| 20260506084422 | 11 | 296 | 1.6 | 4.8 | 0.48 | 1.22 | 1.19 | 97 | 1010.1 |
| 20260506084222 | 11 | 291 | 1.6 | 6.4 | 0.46 | 1.19 | 1.17 | 97 | 1009.9 |
| 20260506084022 | 11 | 292 | 1.6 | 6.4 | 0.48 | 1.19 | 1.17 | 97 | 1009.8 |
| 20260506083822 | 11 | 287 | 1.6 | 6.4 | 0.51 | 1.19 | 1.17 | 97 | 1009.6 |
| 20260506083643 | 11 | 284 | 1.6 | 6.4 | 0.48 | 1.17 | 1.14 | 97 | 1010.3 |
| 20260506083422 | 11 | 284 | 1.6 | 6.4 | 0.46 | 1.14 | 1.12 | 97 | 1010.2 |
| 20260506083222 | 11 | 293 | 1.6 | 6.4 | 0.43 | 1.12 | 1.09 | 97 | 1009.7 |
| 20260506083022 | 11 | 320 | 1.6 | 6.4 | 0.38 | 1.07 | 1.04 | 97 | 1010.0 |
| 20260506082843 | 11 | 9 | 0.0 | 8.0 | 0.33 | 1.02 | 1.02 | 97 | 1009.8 |
| 20260506082621 | 11 | 38 | 0.0 | 8.0 | 0.30 | 0.99 | 0.97 | 97 | 1009.7 |
| 20260506082423 | 11 | 47 | 0.0 | 8.0 | 0.33 | 0.99 | 0.97 | 97 | 1009.1 |
| 20260506082242 | 12 | 43 | 0.0 | 8.0 | 0.33 | 0.97 | 0.94 | 97 | 1009.0 |
| 20260506082022 | 12 | 313 | 0.0 | 8.0 | 0.33 | 0.94 | 0.91 | 97 | 1009.0 |
| 20260506081843 | 12 | 278 | 0.0 | 6.4 | 0.33 | 0.94 | 0.91 | 97 | 1009.0 |
| 20260506081622 | 12 | 278 | 0.0 | 6.4 | 0.33 | 0.94 | 0.91 | 97 | 1009.1 |
| 20260506081421 | 12 | 282 | 0.0 | 6.4 | 0.33 | 0.91 | 0.89 | 97 | 1009.3 |
| 20260506081222 | 12 | 281 | 1.6 | 6.4 | 0.33 | 0.91 | 0.89 | 97 | 1009.2 |
| 20260506081043 | 12 | 280 | 1.6 | 6.4 | 0.33 | 0.91 | 0.89 | 97 | 1009.2 |
| 20260506080843 | 12 | 283 | 1.6 | 4.8 | 0.33 | 0.91 | 0.89 | 97 | 1009.1 |
| 20260506080622 | 12 | 283 | 1.6 | 4.8 | 0.33 | 0.91 | 0.89 | 97 | 1009.1 |
| 20260506080422 | 12 | 281 | 1.6 | 4.8 | 0.33 | 0.91 | 0.89 | 97 | 1009.1 |
| 20260506080222 | 12 | 281 | 1.6 | 4.8 | 0.33 | 0.91 | 0.89 | 97 | 1009.2 |
| 20260506073422 | 12 | 297 | 0.0 | 4.8 | 0.13 | 0.69 | 0.66 | 96 | 1008.5 |
| 20260506073222 | 12 | 281 | 1.6 | 4.8 | 0.13 | 0.69 | 0.66 | 96 | 1008.4 |
| 20260506073021 | 12 | 282 | 1.6 | 6.4 | 0.13 | 0.69 | 0.66 | 96 | 1008.4 |
| 20260506072822 | 12 | 283 | 1.6 | 6.4 | 0.15 | 0.69 | 0.66 | 96 | 1008.4 |
| 20260506072623 | 12 | 281 | 1.6 | 6.4 | 0.15 | 0.69 | 0.66 | 96 | 1008.4 |
| 20260506072422 | 12 | 279 | 3.2 | 8.0 | 0.13 | 0.66 | 0.64 | 96 | 1008.4 |
| 20260506072222 | 12 | 281 | 3.2 | 8.0 | 0.10 | 0.64 | 0.61 | 96 | 1008.4 |
| 20260506072022 | 12 | 281 | 3.2 | 8.0 | 0.10 | 0.61 | 0.58 | 95 | 1008.4 |
| 20260506071822 | 12 | 281 | 3.2 | 8.0 | 0.10 | 0.61 | 0.58 | 95 | 1008.4 |
| 20260506071622 | 13 | 280 | 3.2 | 11.3 | 0.10 | 0.61 | 0.58 | 95 | 1008.4 |
| 20260506071422 | 13 | 282 | 3.2 | 11.3 | 0.08 | 0.58 | 0.56 | 95 | 1008.4 |
| 20260506071222 | 13 | 282 | 3.2 | 11.3 | 0.08 | 0.58 | 0.56 | 95 | 1008.3 |
| 20260506071022 | 13 | 280 | 3.2 | 11.3 | 0.08 | 0.58 | 0.56 | 95 | 1008.4 |
| 20260506070821 | 13 | 280 | 4.8 | 11.3 | 0.08 | 0.58 | 0.56 | 94 | 1008.4 |
| 20260506070643 | 13 | 281 | 4.8 | 9.7 | 0.08 | 0.58 | 0.56 | 94 | 1008.3 |
| 20260506070422 | 13 | 284 | 4.8 | 14.5 | 0.10 | 0.58 | 0.56 | 94 | 1008.2 |
| 20260506070243 | 13 | 286 | 4.8 | 14.5 | 0.10 | 0.58 | 0.56 | 94 | 1008.3 |
| 20260506062422 | 17 | 234 | 0.0 | 4.8 | 0.51 | 0.53 | 0.51 | 95 | 1007.3 |
| 20260506062243 | 17 | 237 | 0.0 | 4.8 | 0.51 | 0.53 | 0.51 | 95 | 1007.5 |
| 20260506062023 | 17 | 250 | 0.0 | 3.2 | 0.48 | 0.51 | 0.48 | 95 | 1007.4 |
| 20260506061822 | 17 | 247 | 1.6 | 3.2 | 0.48 | 0.51 | 0.48 | 95 | 1007.2 |
| 20260506061622 | 17 | 243 | 1.6 | 1.6 | 0.48 | 0.51 | 0.48 | 95 | 1007.3 |
| 20260506061423 | 17 | 260 | 1.6 | 4.8 | 0.48 | 0.51 | 0.48 | 95 | 1007.5 |
| 20260506061222 | 17 | 255 | 1.6 | 4.8 | 0.48 | 0.51 | 0.48 | 94 | 1007.5 |
| 20260506061043 | 17 | 254 | 1.6 | 4.8 | 0.48 | 0.51 | 0.48 | 94 | 1007.5 |
| 20260506060822 | 17 | 246 | 1.6 | 8.0 | 0.48 | 0.51 | 0.48 | 94 | 1007.4 |
| 20260506060621 | 18 | 246 | 1.6 | 8.0 | 0.48 | 0.51 | 0.48 | 94 | 1007.5 |
| 20260506060422 | 18 | 248 | 1.6 | 8.0 | 0.46 | 0.48 | 0.46 | 94 | 1007.6 |
| 20260506060222 | 18 | 254 | 3.2 | 8.0 | 0.46 | 0.48 | 0.46 | 93 | 1007.4 |
| 20260506051222 | 18 | 221 | 1.6 | 6.4 | 0.00 | 0.03 | 0.00 | 91 | 1006.5 |
| 20260506051022 | 18 | 219 | 1.6 | 6.4 | 0.00 | 0.03 | 0.00 | 91 | 1006.6 |
| 20260506050843 | 18 | 220 | 1.6 | 6.4 | 0.00 | 0.03 | 0.00 | 92 | 1006.6 |
| 20260506050622 | 18 | 225 | 1.6 | 6.4 | 0.00 | 0.03 | 0.00 | 92 | 1006.6 |
| 20260506050422 | 17 | 224 | 1.6 | 6.4 | 0.00 | 0.03 | 0.00 | 92 | 1006.6 |
| 20260506050222 | 17 | 218 | 1.6 | 4.8 | 0.00 | 0.03 | 0.00 | 92 | 1006.6 |
| 20260506045022 | 17 | 213 | 1.6 | 6.4 | 0.00 | 0.03 | 0.03 | 94 | 1006.8 |
| 20260506044822 | 17 | 212 | 1.6 | 4.8 | 0.00 | 0.03 | 0.03 | 94 | 1006.9 |
| 20260506044622 | 17 | 216 | 0.0 | 3.2 | 0.00 | 0.03 | 0.03 | 94 | 1006.9 |
| 20260506044422 | 17 | 215 | 0.0 | 3.2 | 0.00 | 0.03 | 0.03 | 94 | 1007.0 |
| 20260506044222 | 17 | 218 | 0.0 | 3.2 | 0.00 | 0.03 | 0.03 | 95 | 1007.0 |
| 20260506044023 | 17 | 229 | 0.0 | 3.2 | 0.00 | 0.03 | 0.03 | 95 | 1006.9 |
| 20260506043822 | 17 | 226 | 0.0 | 3.2 | 0.00 | 0.03 | 0.03 | 95 | 1006.9 |
| 20260506043622 | 17 | 224 | 0.0 | 1.6 | 0.00 | 0.03 | 0.03 | 95 | 1006.9 |
| 20260506043423 | 17 | 224 | 0.0 | 1.6 | 0.00 | 0.03 | 0.03 | 95 | 1007.0 |
| 20260506043222 | 17 | 215 | 0.0 | 3.2 | 0.03 | 0.03 | 0.03 | 95 | 1006.9 |
| 20260506043022 | 17 | 208 | 0.0 | 3.2 | 0.03 | 0.03 | 0.03 | 95 | 1006.9 |
| 20260506042822 | 17 | 204 | 0.0 | 3.2 | 0.03 | 0.03 | 0.03 | 95 | 1006.8 |
| 20260506042622 | 17 | 204 | 0.0 | 3.2 | 0.03 | 0.03 | 0.03 | 95 | 1006.9 |
| 20260506042443 | 17 | 204 | 0.0 | 3.2 | 0.03 | 0.03 | 0.03 | 95 | 1006.9 |
| 20260506042223 | 17 | 211 | 0.0 | 1.6 | 0.03 | 0.03 | 0.03 | 95 | 1007.0 |
| 20260506042022 | 17 | 211 | 0.0 | 1.6 | 0.03 | 0.03 | 0.03 | 95 | 1007.0 |
| 20260506041822 | 16 | 211 | 0.0 | 1.6 | 0.03 | 0.03 | 0.03 | 95 | 1007.0 |
| 20260506041622 | 16 | 211 | 0.0 | 1.6 | 0.03 | 0.03 | 0.03 | 95 | 1007.0 |
| 20260506041422 | 16 | 211 | 0.0 | 1.6 | 0.03 | 0.03 | 0.03 | 95 | 1007.0 |
| 20260506041222 | 16 | 190 | 0.0 | 1.6 | 0.03 | 0.03 | 0.03 | 95 | 1007.1 |
| 20260506041022 | 16 | 187 | 0.0 | 1.6 | 0.03 | 0.03 | 0.03 | 95 | 1007.1 |
| 20260506040822 | 16 | 179 | 0.0 | 1.6 | 0.03 | 0.03 | 0.03 | 95 | 1007.1 |
| 20260506040643 | 16 | 176 | 0.0 | 1.6 | 0.03 | 0.03 | 0.03 | 95 | 1007.1 |
| 20260506040422 | 16 | 166 | 0.0 | 1.6 | 0.03 | 0.03 | 0.03 | 95 | 1007.0 |
| 20260506040222 | 16 | 178 | 0.0 | 1.6 | 0.03 | 0.03 | 0.03 | 95 | 1007.1 |
| 20260506040022 | 16 | 178 | 0.0 | 1.6 | 0.03 | 0.03 | 0.03 | 95 | 1007.1 |
| 20260506035822 | 16 | 0 | 0.0 | 0.0 | 0.03 | 0.03 | 0.03 | 94 | 1007.2 |
| 20260506035622 | 16 | 0 | 0.0 | 0.0 | 0.03 | 0.03 | 0.03 | 94 | 1007.2 |
| 20260506035422 | 16 | 0 | 0.0 | 0.0 | 0.03 | 0.03 | 0.03 | 94 | 1007.1 |
| 20260506035222 | 16 | 0 | 0.0 | 0.0 | 0.03 | 0.03 | 0.03 | 94 | 1007.2 |
| 20260506035043 | 16 | 0 | 0.0 | 0.0 | 0.03 | 0.03 | 0.03 | 94 | 1007.3 |
| 20260506034822 | 16 | 0 | 0.0 | 0.0 | 0.03 | 0.03 | 0.03 | 94 | 1007.3 |
| 20260506034622 | 16 | 0 | 0.0 | 0.0 | 0.03 | 0.03 | 0.03 | 94 | 1007.5 |
| 20260506034422 | 16 | 0 | 0.0 | 0.0 | 0.03 | 0.03 | 0.03 | 94 | 1007.5 |
| 20260506034222 | 16 | 0 | 0.0 | 0.0 | 0.03 | 0.03 | 0.03 | 94 | 1007.4 |
| 20260506034022 | 16 | 0 | 0.0 | 0.0 | 0.03 | 0.03 | 0.03 | 94 | 1007.4 |
| 20260506033843 | 16 | 0 | 0.0 | 0.0 | 0.03 | 0.03 | 0.03 | 94 | 1007.6 |
| 20260506033622 | 16 | 0 | 0.0 | 0.0 | 0.03 | 0.03 | 0.03 | 94 | 1007.6 |
| 20260506033443 | 16 | 0 | 0.0 | 0.0 | 0.03 | 0.03 | 0.03 | 94 | 1007.8 |
| 20260506033222 | 16 | 139 | 0.0 | 1.6 | 0.00 | 0.00 | 0.00 | 94 | 1007.6 |
| 20260506033023 | 16 | 140 | 0.0 | 1.6 | 0.00 | 0.00 | 0.00 | 94 | 1007.5 |
| 20260506032822 | 16 | 140 | 0.0 | 1.6 | 0.00 | 0.00 | 0.00 | 94 | 1007.4 |
| 20260506032643 | 16 | 140 | 0.0 | 1.6 | 0.00 | 0.00 | 0.00 | 94 | 1007.3 |
| 20260506032443 | 16 | 140 | 0.0 | 1.6 | 0.00 | 0.00 | 0.00 | 94 | 1007.4 |
| 20260506032222 | 16 | 140 | 0.0 | 1.6 | 0.00 | 0.00 | 0.00 | 93 | 1007.4 |
| 20260506032022 | 16 | 140 | 0.0 | 1.6 | 0.00 | 0.00 | 0.00 | 93 | 1007.5 |
| 20260506031822 | 16 | 140 | 0.0 | 1.6 | 0.00 | 0.00 | 0.00 | 93 | 1007.5 |
| 20260506031622 | 16 | 140 | 0.0 | 1.6 | 0.00 | 0.00 | 0.00 | 93 | 1007.6 |
| 20260506031422 | 16 | 140 | 0.0 | 1.6 | 0.00 | 0.00 | 0.00 | 93 | 1007.5 |
| 20260506031222 | 16 | 139 | 0.0 | 1.6 | 0.00 | 0.00 | 0.00 | 93 | 1007.4 |
| 20260506031043 | 16 | 139 | 0.0 | 1.6 | 0.00 | 0.00 | 0.00 | 93 | 1007.5 |
| 20260506030822 | 16 | 139 | 0.0 | 1.6 | 0.00 | 0.00 | 0.00 | 93 | 1007.5 |
| 20260506030622 | 16 | 139 | 0.0 | 1.6 | 0.00 | 0.00 | 0.00 | 93 | 1007.5 |
| 20260506030422 | 16 | 139 | 0.0 | 1.6 | 0.00 | 0.00 | 0.00 | 93 | 1007.6 |
| 20260506030243 | 16 | 0 | 0.0 | 0.0 | 0.00 | 0.00 | 0.00 | 93 | 1007.6 |
| 20260506030022 | 16 | 0 | 0.0 | 0.0 | 0.00 | 0.00 | 0.00 | 93 | 1007.6 |
| 20260506025822 | 16 | 0 | 0.0 | 0.0 | 0.00 | 0.00 | 0.00 | 93 | 1007.6 |
| 20260506025622 | 16 | 0 | 0.0 | 0.0 | 0.00 | 0.00 | 0.00 | 93 | 1007.6 |
| 20260506025422 | 16 | 0 | 0.0 | 0.0 | 0.00 | 0.00 | 0.00 | 93 | 1007.6 |
| 20260506025222 | 16 | 0 | 0.0 | 0.0 | 0.00 | 0.00 | 0.00 | 93 | 1007.6 |
| 20260506025022 | 16 | 0 | 0.0 | 0.0 | 0.00 | 0.00 | 0.00 | 93 | 1007.6 |
| 20260506024843 | 16 | 0 | 0.0 | 0.0 | 0.00 | 0.00 | 0.00 | 92 | 1007.7 |
| 20260506024622 | 16 | 0 | 0.0 | 0.0 | 0.00 | 0.00 | 0.00 | 92 | 1007.7 |
| 20260506024422 | 16 | 0 | 0.0 | 0.0 | 0.00 | 0.00 | 0.00 | 92 | 1007.7 |
| 20260506024222 | 16 | 0 | 0.0 | 0.0 | 0.00 | 0.00 | 0.00 | 92 | 1007.7 |
| 20260506024022 | 16 | 0 | 0.0 | 0.0 | 0.00 | 0.00 | 0.00 | 92 | 1007.7 |
| 20260506023843 | 16 | 140 | 0.0 | 1.6 | 0.00 | 0.00 | 0.00 | 92 | 1007.8 |
| 20260506023622 | 16 | 140 | 0.0 | 1.6 | 0.00 | 0.00 | 0.00 | 92 | 1007.8 |
| 20260506023422 | 16 | 140 | 0.0 | 1.6 | 0.00 | 0.00 | 0.00 | 92 | 1007.8 |
| 20260506023222 | 16 | 140 | 0.0 | 1.6 | 0.00 | 0.00 | 0.00 | 92 | 1007.7 |
| 20260506023022 | 16 | 138 | 0.0 | 1.6 | 0.00 | 0.00 | 0.00 | 92 | 1007.8 |
| 20260506022822 | 16 | 137 | 0.0 | 1.6 | 0.00 | 0.00 | 0.00 | 92 | 1007.8 |
| 20260506022622 | 16 | 137 | 0.0 | 1.6 | 0.00 | 0.00 | 0.00 | 92 | 1007.8 |
| 20260506022422 | 16 | 137 | 0.0 | 1.6 | 0.00 | 0.00 | 0.00 | 92 | 1007.9 |
| 20260506022243 | 16 | 137 | 0.0 | 1.6 | 0.00 | 0.00 | 0.00 | 92 | 1008.0 |
| 20260506022022 | 16 | 137 | 0.0 | 1.6 | 0.00 | 0.00 | 0.00 | 92 | 1008.1 |
| 20260506021822 | 16 | 137 | 0.0 | 1.6 | 0.00 | 0.00 | 0.00 | 92 | 1008.2 |
| 20260506021643 | 16 | 137 | 0.0 | 1.6 | 0.00 | 0.00 | 0.00 | 92 | 1008.1 |
| 20260506021423 | 16 | 137 | 0.0 | 1.6 | 0.00 | 0.00 | 0.00 | 92 | 1008.1 |
| 20260506021222 | 16 | 0 | 0.0 | 0.0 | 0.00 | 0.00 | 0.00 | 91 | 1008.0 |
| 20260506021022 | 16 | 0 | 0.0 | 0.0 | 0.00 | 0.00 | 0.00 | 91 | 1008.0 |
| 20260506020822 | 16 | 0 | 0.0 | 0.0 | 0.00 | 0.00 | 0.00 | 91 | 1008.1 |
| 20260506020622 | 16 | 0 | 0.0 | 0.0 | 0.00 | 0.00 | 0.00 | 91 | 1008.1 |
| 20260506020422 | 16 | 0 | 0.0 | 0.0 | 0.00 | 0.00 | 0.00 | 91 | 1008.2 |
| 20260506020222 | 16 | 0 | 0.0 | 0.0 | 0.00 | 0.00 | 0.00 | 91 | 1008.1 |
| 20260506020043 | 16 | 0 | 0.0 | 0.0 | 0.00 | 0.00 | 0.00 | 91 | 1008.2 |
| 20260506015823 | 16 | 0 | 0.0 | 0.0 | 0.00 | 0.00 | 0.00 | 91 | 1008.2 |
| 20260506015622 | 16 | 137 | 0.0 | 1.6 | 0.00 | 0.00 | 0.00 | 92 | 1008.2 |
| 20260506015422 | 16 | 137 | 0.0 | 1.6 | 0.00 | 0.00 | 0.00 | 92 | 1008.3 |
| 20260506015222 | 16 | 137 | 0.0 | 1.6 | 0.00 | 0.00 | 0.00 | 91 | 1008.3 |
| 20260506015022 | 16 | 135 | 0.0 | 1.6 | 0.00 | 0.00 | 0.00 | 91 | 1008.2 |
| 20260506014822 | 16 | 135 | 0.0 | 1.6 | 0.00 | 0.00 | 0.00 | 91 | 1008.2 |
| 20260506014622 | 16 | 134 | 0.0 | 1.6 | 0.00 | 0.00 | 0.00 | 91 | 1008.2 |
| 20260506014422 | 16 | 134 | 0.0 | 3.2 | 0.00 | 0.00 | 0.00 | 91 | 1008.3 |
| 20260506014222 | 16 | 138 | 0.0 | 3.2 | 0.00 | 0.00 | 0.00 | 91 | 1008.1 |
| 20260506014043 | 16 | 141 | 0.0 | 3.2 | 0.00 | 0.00 | 0.00 | 91 | 1008.1 |
| 20260506013822 | 16 | 141 | 0.0 | 3.2 | 0.00 | 0.00 | 0.00 | 91 | 1008.1 |
| 20260506013643 | 16 | 141 | 0.0 | 3.2 | 0.00 | 0.00 | 0.00 | 91 | 1008.1 |
| 20260506013443 | 16 | 147 | 0.0 | 1.6 | 0.00 | 0.00 | 0.00 | 91 | 1008.1 |
| 20260506013243 | 16 | 150 | 0.0 | 1.6 | 0.00 | 0.00 | 0.00 | 91 | 1008.1 |
| 20260506013022 | 16 | 159 | 0.0 | 1.6 | 0.00 | 0.00 | 0.00 | 91 | 1008.1 |
| 20260506012822 | 16 | 159 | 0.0 | 1.6 | 0.00 | 0.00 | 0.00 | 91 | 1008.1 |
| 20260506012622 | 16 | 159 | 0.0 | 1.6 | 0.00 | 0.00 | 0.00 | 91 | 1008.1 |
| 20260506012422 | 16 | 168 | 0.0 | 1.6 | 0.00 | 0.00 | 0.00 | 90 | 1008.1 |
| 20260506012222 | 16 | 172 | 0.0 | 1.6 | 0.00 | 0.00 | 0.00 | 90 | 1008.1 |
| 20260506012022 | 16 | 0 | 0.0 | 0.0 | 0.00 | 0.00 | 0.00 | 90 | 1008.1 |
| 20260506011822 | 16 | 0 | 0.0 | 0.0 | 0.00 | 0.00 | 0.00 | 90 | 1008.1 |
| 20260506011623 | 16 | 0 | 0.0 | 0.0 | 0.00 | 0.00 | 0.00 | 90 | 1008.1 |
| 20260506011422 | 16 | 0 | 0.0 | 0.0 | 0.00 | 0.00 | 0.00 | 90 | 1008.1 |
| 20260506011222 | 16 | 0 | 0.0 | 0.0 | 0.00 | 0.00 | 0.00 | 90 | 1008.2 |
| 20260506011043 | 16 | 0 | 0.0 | 0.0 | 0.00 | 0.00 | 0.00 | 90 | 1008.2 |
| 20260506010843 | 16 | 0 | 0.0 | 0.0 | 0.00 | 0.00 | 0.00 | 90 | 1008.2 |
| 20260506010622 | 16 | 0 | 0.0 | 0.0 | 0.00 | 0.00 | 0.00 | 89 | 1008.2 |
| 20260506010422 | 16 | 0 | 0.0 | 0.0 | 0.00 | 0.00 | 0.00 | 89 | 1008.3 |
| 20260506010222 | 16 | 0 | 0.0 | 0.0 | 0.00 | 0.00 | 0.00 | 89 | 1008.4 |
| 20260506010022 | 16 | 0 | 0.0 | 0.0 | 0.00 | 0.00 | 0.00 | 89 | 1008.3 |
| 20260506005822 | 16 | 0 | 0.0 | 0.0 | 0.00 | 0.00 | 0.00 | 89 | 1008.5 |
| 20260506005622 | 16 | 0 | 0.0 | 0.0 | 0.00 | 0.00 | 0.00 | 88 | 1008.6 |
| 20260506005422 | 16 | 0 | 0.0 | 0.0 | 0.00 | 0.00 | 0.00 | 88 | 1008.6 |
| 20260506005243 | 16 | 0 | 0.0 | 0.0 | 0.00 | 0.00 | 0.00 | 88 | 1008.7 |
| 20260506005022 | 16 | 0 | 0.0 | 0.0 | 0.00 | 0.00 | 0.00 | 88 | 1008.6 |
| 20260506004822 | 16 | 0 | 0.0 | 0.0 | 0.00 | 0.00 | 0.00 | 88 | 1008.7 |
| 20260506004643 | 16 | 0 | 0.0 | 0.0 | 0.00 | 0.00 | 0.00 | 88 | 1008.6 |
| 20260506004422 | 17 | 0 | 0.0 | 0.0 | 0.00 | 0.00 | 0.00 | 88 | 1008.7 |
| 20260506004222 | 17 | 0 | 0.0 | 0.0 | 0.00 | 0.00 | 0.00 | 87 | 1008.6 |
| 20260506004022 | 17 | 0 | 0.0 | 0.0 | 0.00 | 0.00 | 0.00 | 87 | 1008.6 |
| 20260506003822 | 17 | 0 | 0.0 | 0.0 | 0.00 | 0.00 | 0.00 | 87 | 1008.6 |
| 20260506003622 | 17 | 0 | 0.0 | 0.0 | 0.00 | 0.00 | 0.00 | 87 | 1008.5 |
| 20260506003422 | 17 | 0 | 0.0 | 0.0 | 0.00 | 0.00 | 0.00 | 87 | 1008.6 |
| 20260506003223 | 17 | 0 | 0.0 | 0.0 | 0.00 | 0.00 | 0.00 | 86 | 1008.6 |
| 20260506003043 | 17 | 0 | 0.0 | 0.0 | 0.00 | 0.00 | 0.00 | 86 | 1008.7 |
| 20260506002822 | 17 | 0 | 0.0 | 0.0 | 0.00 | 0.00 | 0.00 | 86 | 1008.7 |
| 20260506002643 | 17 | 0 | 0.0 | 0.0 | 0.00 | 0.00 | 0.00 | 86 | 1008.7 |
| 20260506002422 | 17 | 0 | 0.0 | 0.0 | 0.00 | 0.00 | 0.00 | 86 | 1008.8 |
| 20260506002222 | 17 | 0 | 0.0 | 0.0 | 0.00 | 0.00 | 0.00 | 86 | 1008.8 |
| 20260506002023 | 17 | 0 | 0.0 | 0.0 | 0.00 | 0.00 | 0.00 | 85 | 1008.7 |
| 20260506001822 | 17 | 0 | 0.0 | 0.0 | 0.00 | 0.00 | 0.00 | 85 | 1008.7 |
| 20260506001622 | 17 | 223 | 0.0 | 1.6 | 0.00 | 0.00 | 0.00 | 84 | 1008.7 |
| 20260506001422 | 17 | 223 | 0.0 | 1.6 | 0.00 | 0.00 | 0.00 | 84 | 1008.8 |
| 20260506001222 | 17 | 224 | 1.6 | 1.6 | 0.00 | 0.00 | 0.00 | 84 | 1008.9 |
| 20260506001022 | 17 | 219 | 1.6 | 3.2 | 0.00 | 0.00 | 0.00 | 84 | 1008.9 |
| 20260506000822 | 17 | 219 | 1.6 | 3.2 | 0.00 | 0.00 | 0.00 | 83 | 1008.9 |
| 20260506000622 | 17 | 220 | 1.6 | 3.2 | 0.00 | 0.00 | 0.00 | 82 | 1008.8 |
| 20260506000445 | 17 | 217 | 1.6 | 3.2 | 0.00 | 0.00 | 0.00 | 82 | 1008.8 |
| 20260506000243 | 17 | 214 | 1.6 | 3.2 | 0.00 | 0.00 | 0.00 | 82 | 1009.0 |
| 20260506000022 | 18 | 217 | 0.0 | 4.8 | 0.00 | 0.00 | 0.00 | 81 | 1009.0 |
| 20260505235822 | 18 | 219 | 0.0 | 4.8 | 0.00 | 0.00 | 0.00 | 81 | 1009.2 |
| 20260505235622 | 18 | 221 | 0.0 | 4.8 | 0.00 | 0.00 | 0.00 | 80 | 1009.2 |
| 20260505235443 | 18 | 227 | 0.0 | 4.8 | 0.00 | 0.00 | 0.00 | 79 | 1009.2 |
| 20260505235222 | 18 | 236 | 1.6 | 3.2 | 0.00 | 0.00 | 0.00 | 79 | 1009.2 |
| 20260505235022 | 18 | 232 | 1.6 | 3.2 | 0.00 | 0.00 | 0.00 | 79 | 1009.3 |
| 20260505234843 | 18 | 223 | 1.6 | 6.4 | 0.00 | 0.00 | 0.00 | 79 | 1009.2 |
| 20260505234643 | 18 | 219 | 1.6 | 6.4 | 0.00 | 0.00 | 0.00 | 78 | 1009.0 |
| 20260505234422 | 18 | 219 | 1.6 | 6.4 | 0.00 | 0.00 | 0.00 | 77 | 1008.8 |
| 20260505234222 | 19 | 218 | 3.2 | 6.4 | 0.00 | 0.00 | 0.00 | 76 | 1008.6 |
| 20260505234022 | 19 | 215 | 3.2 | 6.4 | 0.00 | 0.00 | 0.00 | 75 | 1008.6 |
| 20260505233822 | 19 | 213 | 4.8 | 6.4 | 0.00 | 0.00 | 0.00 | 74 | 1008.5 |
| 20260505233622 | 20 | 211 | 4.8 | 6.4 | 0.00 | 0.00 | 0.00 | 74 | 1008.4 |
| 20260505233443 | 20 | 210 | 4.8 | 6.4 | 0.00 | 0.00 | 0.00 | 73 | 1008.6 |
| 20260505233222 | 20 | 208 | 4.8 | 6.4 | 0.00 | 0.00 | 0.00 | 72 | 1008.7 |
| 20260505233022 | 21 | 207 | 4.8 | 6.4 | 0.00 | 0.00 | 0.00 | 71 | 1008.7 |
| 20260505232822 | 21 | 170 | 4.8 | 3.2 | 0.00 | 0.00 | 0.00 | 69 | 1008.6 |
| 20260505231622 | 22 | 212 | 3.2 | 14.5 | 0.00 | 0.00 | 0.00 | 61 | 1008.3 |
| 20260505231422 | 22 | 211 | 3.2 | 14.5 | 0.00 | 0.00 | 0.00 | 60 | 1008.2 |
| 20260505231222 | 22 | 214 | 3.2 | 14.5 | 0.00 | 0.00 | 0.00 | 59 | 1008.4 |
| 20260505231043 | 22 | 217 | 4.8 | 14.5 | 0.00 | 0.00 | 0.00 | 59 | 1008.4 |
| 20260505230822 | 22 | 220 | 4.8 | 14.5 | 0.00 | 0.00 | 0.00 | 58 | 1008.5 |
| 20260505230623 | 22 | 219 | 6.4 | 14.5 | 0.00 | 0.00 | 0.00 | 59 | 1008.5 |
| 20260505230422 | 22 | 217 | 6.4 | 14.5 | 0.00 | 0.00 | 0.00 | 58 | 1008.5 |
| 20260505230222 | 22 | 219 | 6.4 | 16.1 | 0.00 | 0.00 | 0.00 | 59 | 1008.5 |
| 20260505230022 | 22 | 220 | 6.4 | 16.1 | 0.00 | 0.00 | 0.00 | 58 | 1008.5 |
| 20260505225822 | 22 | 220 | 6.4 | 16.1 | 0.00 | 0.00 | 0.00 | 58 | 1008.4 |
| 20260505225622 | 22 | 221 | 6.4 | 16.1 | 0.00 | 0.00 | 0.00 | 58 | 1008.3 |
| 20260505225422 | 22 | 221 | 6.4 | 16.1 | 0.00 | 0.00 | 0.00 | 58 | 1008.2 |
| 20260505225222 | 23 | 221 | 4.8 | 16.1 | 0.00 | 0.00 | 0.00 | 58 | 1008.3 |
| 20260505225022 | 23 | 218 | 4.8 | 16.1 | 0.00 | 0.00 | 0.00 | 57 | 1008.2 |
| 20260505224823 | 23 | 220 | 3.2 | 16.1 | 0.00 | 0.00 | 0.00 | 57 | 1008.1 |
| 20260505224622 | 23 | 217 | 3.2 | 11.3 | 0.00 | 0.00 | 0.00 | 57 | 1008.1 |
| 20260505224443 | 23 | 217 | 3.2 | 11.3 | 0.00 | 0.00 | 0.00 | 58 | 1008.0 |
| 20260505224222 | 23 | 218 | 4.8 | 11.3 | 0.00 | 0.00 | 0.00 | 58 | 1007.9 |
| 20260505224022 | 23 | 219 | 4.8 | 14.5 | 0.00 | 0.00 | 0.00 | 58 | 1007.9 |
| 20260505223822 | 23 | 216 | 4.8 | 14.5 | 0.00 | 0.00 | 0.00 | 58 | 1007.9 |
| 20260505223622 | 23 | 218 | 6.4 | 14.5 | 0.00 | 0.00 | 0.00 | 58 | 1007.9 |
| 20260505223422 | 23 | 217 | 4.8 | 14.5 | 0.00 | 0.00 | 0.00 | 58 | 1008.1 |
| 20260505223222 | 23 | 216 | 4.8 | 14.5 | 0.00 | 0.00 | 0.00 | 57 | 1008.1 |
| 20260505223022 | 23 | 214 | 4.8 | 12.9 | 0.00 | 0.00 | 0.00 | 57 | 1008.0 |